NOZ431 ENML-ENGM

Flight info

Callsign NOZ431
Flight time 0h 38m
Altitude 31000
Route BAMVA DCT OKEXA DCT BELGU
Aircraft B738/M-SADE3GHIJ1LRWXY/LB1

Departure

Time 2026-05-04 14:32
Airport Molde Airport, Årø (ENML)

Arrival

Time 2026-05-04 15:10
Airport Oslo-Gardermoen International Airport (ENGM)
Time Latitude Longitude Altitude Speed Heading
2026-05-04 13:59 62.74593 7.26060 22 ft 0 kts 342°
2026-05-04 14:24 62.74592 7.26060 22 ft 2 kts 342°
2026-05-04 14:24 62.74569 7.26078 26 ft 4 kts 341°
2026-05-04 14:24 62.74551 7.26092 21 ft 0 kts 341°
2026-05-04 14:27 62.74556 7.26093 21 ft 1 kts
2026-05-04 14:27 62.74564 7.26123 23 ft 5 kts 73°
2026-05-04 14:28 62.74560 7.26238 21 ft 10 kts 130°
2026-05-04 14:28 62.74498 7.26310 18 ft 7 kts 128°
2026-05-04 14:28 62.74506 7.26426 19 ft 12 kts 71°
2026-05-04 14:28 62.74545 7.26670 21 ft 22 kts 71°
2026-05-04 14:29 62.74646 7.27313 19 ft 21 kts 71°
2026-05-04 14:29 62.74741 7.27914 18 ft 22 kts 71°
2026-05-04 14:30 62.74791 7.28231 19 ft 22 kts 71°
2026-05-04 14:30 62.74837 7.28532 20 ft 16 kts 71°
2026-05-04 14:30 62.74871 7.28714 17 ft 4 kts 265°
2026-05-04 14:31 62.74859 7.28662 16 ft 6 kts 248°
2026-05-04 14:31 62.74591 7.26958 21 ft 125 kts 251°
2026-05-04 14:32 62.74008 7.23127 1489 ft 129 kts 254°
2026-05-04 14:32 62.73720 7.21229 2195 ft 139 kts 255°
2026-05-04 14:32 62.73154 7.19251 2576 ft 179 kts 221°
2026-05-04 14:32 62.71873 7.18502 2992 ft 216 kts 182°
2026-05-04 14:33 62.70368 7.19737 3385 ft 246 kts 150°
2026-05-04 14:33 62.69074 7.22480 3795 ft 276 kts 129°
2026-05-04 14:33 62.67958 7.25907 4744 ft 278 kts 127°
2026-05-04 14:33 62.66866 7.29429 5665 ft 283 kts 126°
2026-05-04 14:34 62.65773 7.33009 6636 ft 283 kts 126°
2026-05-04 14:34 62.64675 7.36588 7393 ft 290 kts 126°
2026-05-04 14:34 62.63542 7.40248 8315 ft 293 kts 127°
2026-05-04 14:34 62.62390 7.43934 9224 ft 295 kts 127°
2026-05-04 14:35 62.61226 7.47626 10100 ft 299 kts 127°
2026-05-04 14:35 62.60003 7.51479 10454 ft 321 kts 127°
2026-05-04 14:35 62.58722 7.55492 11068 ft 331 kts 127°
2026-05-04 14:35 62.57401 7.59624 11928 ft 335 kts 127°
2026-05-04 14:36 62.56064 7.63797 12837 ft 338 kts 127°
2026-05-04 14:36 62.54710 7.68009 13719 ft 343 kts 127°
2026-05-04 14:36 62.53337 7.72269 14500 ft 348 kts 127°
2026-05-04 14:36 62.51929 7.76624 15268 ft 353 kts 128°
2026-05-04 14:37 62.50501 7.81032 16099 ft 358 kts 128°
2026-05-04 14:37 62.49074 7.85428 16920 ft 364 kts 128°
2026-05-04 14:37 62.47599 7.89959 17679 ft 371 kts 128°
2026-05-04 14:37 62.46096 7.94570 18420 ft 376 kts 128°
2026-05-04 14:38 62.44576 7.99224 19072 ft 382 kts 129°
2026-05-04 14:38 62.43023 8.03965 19703 ft 389 kts 129°
2026-05-04 14:38 62.41464 8.08715 20309 ft 396 kts 129°
2026-05-04 14:38 62.39859 8.13597 20900 ft 403 kts 129°
2026-05-04 14:39 62.38223 8.18563 21516 ft 409 kts 130°
2026-05-04 14:39 62.36558 8.23607 22153 ft 414 kts 130°
2026-05-04 14:39 62.34876 8.28691 22769 ft 419 kts 130°
2026-05-04 14:40 62.31432 8.39062 23765 ft 431 kts 130°
2026-05-04 14:40 62.29703 8.44256 24259 ft 434 kts 130°
2026-05-04 14:40 62.27937 8.49550 24728 ft 438 kts 130°
2026-05-04 14:40 62.26144 8.54914 25161 ft 441 kts 131°
2026-05-04 14:41 62.24323 8.60337 25402 ft 452 kts 131°
2026-05-04 14:41 62.22464 8.65857 25746 ft 459 kts 131°
2026-05-04 14:41 62.18741 8.76905 26891 ft 460 kts 131°
2026-05-04 14:42 62.14994 8.87978 28186 ft 457 kts 131°
2026-05-04 14:42 62.13119 8.93492 28760 ft 458 kts 131°
2026-05-04 14:42 62.11257 8.98948 29310 ft 459 kts 131°
2026-05-04 14:43 62.09376 9.04450 29901 ft 458 kts 131°
2026-05-04 14:43 62.07493 9.09944 30413 ft 457 kts 131°
2026-05-04 14:43 62.05614 9.15416 30764 ft 458 kts 131°
2026-05-04 14:43 62.03731 9.20891 30730 ft 456 kts 131°
2026-05-04 14:44 62.01857 9.26323 30603 ft 455 kts 132°
2026-05-04 14:44 61.99886 9.31566 30192 ft 449 kts 139°
2026-05-04 14:44 61.97618 9.35992 29862 ft 436 kts 149°
2026-05-04 14:44 61.95266 9.39897 29456 ft 432 kts 150°
2026-05-04 14:45 61.92894 9.43777 29053 ft 427 kts 150°
2026-05-04 14:45 61.90540 9.47628 28655 ft 423 kts 150°
2026-05-04 14:45 61.88253 9.51383 28204 ft 419 kts 151°
2026-05-04 14:45 61.85968 9.55149 27861 ft 415 kts 152°
2026-05-04 14:46 61.83696 9.58901 27472 ft 412 kts 152°
2026-05-04 14:46 61.81442 9.62625 27096 ft 409 kts 152°
2026-05-04 14:46 61.79210 9.66309 26715 ft 406 kts 152°
2026-05-04 14:46 61.76990 9.69972 26347 ft 403 kts 152°
2026-05-04 14:47 61.74815 9.73553 25981 ft 400 kts 152°
2026-05-04 14:47 61.72598 9.77196 25625 ft 397 kts 152°
2026-05-04 14:47 61.70445 9.80727 25265 ft 396 kts 152°
2026-05-04 14:47 61.68274 9.84280 24891 ft 394 kts 152°
2026-05-04 14:48 61.66110 9.87817 24535 ft 392 kts 152°
2026-05-04 14:48 61.63954 9.91333 24178 ft 390 kts 152°
2026-05-04 14:48 61.61811 9.94824 23791 ft 388 kts 153°
2026-05-04 14:48 61.59710 9.98241 23449 ft 385 kts 153°
2026-05-04 14:49 61.57596 10.01674 23061 ft 381 kts 153°
2026-05-04 14:49 61.55497 10.05077 22636 ft 378 kts 153°
2026-05-04 14:49 61.53425 10.08430 22261 ft 373 kts 154°
2026-05-04 14:49 61.51384 10.11728 21948 ft 368 kts 154°
2026-05-04 14:50 61.49385 10.14952 21624 ft 364 kts 154°
2026-05-04 14:50 61.47389 10.18165 21279 ft 360 kts 154°
2026-05-04 14:50 61.45409 10.21341 20965 ft 357 kts 153°
2026-05-04 14:50 61.43432 10.24504 20632 ft 357 kts 153°
2026-05-04 14:51 61.41459 10.27657 20277 ft 357 kts 153°
2026-05-04 14:51 61.39490 10.30801 19950 ft 355 kts 153°
2026-05-04 14:51 61.37553 10.33893 19622 ft 353 kts 153°
2026-05-04 14:51 61.35606 10.36997 19305 ft 351 kts 153°
2026-05-04 14:52 61.33671 10.40075 18978 ft 349 kts 152°
2026-05-04 14:52 61.31676 10.42864 18518 ft 339 kts 166°
2026-05-04 14:52 61.29527 10.44618 18119 ft 334 kts 170°
2026-05-04 14:52 61.27356 10.46289 17769 ft 332 kts 170°
2026-05-04 14:53 61.25198 10.47955 17441 ft 329 kts 170°
2026-05-04 14:53 61.23050 10.49624 17098 ft 327 kts 169°
2026-05-04 14:53 61.20928 10.51279 16815 ft 324 kts 169°
2026-05-04 14:53 61.18825 10.52924 16492 ft 321 kts 169°
2026-05-04 14:54 61.16740 10.54557 16133 ft 319 kts 169°
2026-05-04 14:54 61.14685 10.56166 15789 ft 318 kts 169°
2026-05-04 14:54 61.12623 10.57783 15446 ft 316 kts 169°
2026-05-04 14:54 61.10573 10.59388 15111 ft 313 kts 169°
2026-05-04 14:55 61.08531 10.60986 14778 ft 311 kts 169°
2026-05-04 14:55 61.06511 10.62566 14456 ft 308 kts 169°
2026-05-04 14:55 61.04539 10.64106 14128 ft 307 kts 169°
2026-05-04 14:55 61.02542 10.65661 13793 ft 305 kts 169°
2026-05-04 14:56 61.00555 10.67208 13455 ft 304 kts 169°
2026-05-04 14:56 60.98580 10.68743 13099 ft 301 kts 168°
2026-05-04 14:56 60.96646 10.70244 12774 ft 300 kts 168°
2026-05-04 14:56 60.94702 10.71752 12448 ft 298 kts 168°
2026-05-04 14:57 60.92763 10.73254 12108 ft 296 kts 168°
2026-05-04 14:57 60.90834 10.74745 11728 ft 296 kts 167°
2026-05-04 14:57 60.88898 10.76237 11315 ft 297 kts 166°
2026-05-04 14:57 60.86966 10.77728 10986 ft 295 kts 166°
2026-05-04 14:58 60.85052 10.79204 10678 ft 293 kts 166°
2026-05-04 14:58 60.83153 10.80668 10382 ft 290 kts 166°
2026-05-04 14:58 60.81292 10.82099 10082 ft 288 kts 165°
2026-05-04 14:58 60.80026 10.83072 9891 ft 286 kts 165°
2026-05-04 14:59 60.77564 10.84961 9507 ft 283 kts 165°
2026-05-04 14:59 60.75722 10.86371 9178 ft 281 kts 165°
2026-05-04 14:59 60.72707 10.88679 8710 ft 275 kts 165°
2026-05-04 15:00 60.70911 10.90049 8469 ft 277 kts 165°
2026-05-04 15:00 60.68493 10.91888 8108 ft 281 kts 165°
2026-05-04 15:00 60.67245 10.92838 7946 ft 283 kts 165°
2026-05-04 15:01 60.63593 10.95616 7412 ft 280 kts 165°
2026-05-04 15:01 60.61777 10.96996 7179 ft 276 kts 165°
2026-05-04 15:01 60.59992 10.98352 6939 ft 272 kts 165°
2026-05-04 15:01 60.58219 10.99694 6636 ft 271 kts 165°
2026-05-04 15:02 60.56452 11.01029 6350 ft 270 kts 165°
2026-05-04 15:02 60.54693 11.02358 6071 ft 269 kts 165°
2026-05-04 15:02 60.52963 11.03666 5894 ft 264 kts 165°
2026-05-04 15:02 60.51258 11.04954 5818 ft 260 kts 165°
2026-05-04 15:03 60.49564 11.06227 5662 ft 257 kts 165°
2026-05-04 15:03 60.47907 11.07472 5544 ft 251 kts 165°
2026-05-04 15:03 60.46327 11.08916 5365 ft 253 kts 149°
2026-05-04 15:03 60.45045 11.11361 5182 ft 252 kts 139°
2026-05-04 15:04 60.43807 11.13881 4913 ft 251 kts 140°
2026-05-04 15:04 60.42569 11.16341 4679 ft 246 kts 141°
2026-05-04 15:04 60.41387 11.18667 4477 ft 235 kts 142°
2026-05-04 15:04 60.40067 11.20310 4186 ft 213 kts 176°
2026-05-04 15:05 60.38743 11.19882 4028 ft 182 kts 214°
2026-05-04 15:05 60.37637 11.18732 3817 ft 178 kts 209°
2026-05-04 15:05 60.36493 11.17853 3624 ft 172 kts 205°
2026-05-04 15:05 60.35369 11.17138 3553 ft 170 kts 204°
2026-05-04 15:06 60.34234 11.16457 3333 ft 172 kts 203°
2026-05-04 15:06 60.33091 11.15797 3104 ft 169 kts 203°
2026-05-04 15:06 60.31974 11.15154 2875 ft 165 kts 202°
2026-05-04 15:07 60.29877 11.13944 2446 ft 150 kts 202°
2026-05-04 15:07 60.28889 11.13375 2254 ft 142 kts 203°
2026-05-04 15:07 60.27964 11.12841 2044 ft 137 kts 205°
2026-05-04 15:07 60.27035 11.12297 1858 ft 141 kts 204°
2026-05-04 15:08 60.26117 11.11772 1663 ft 136 kts 204°
2026-05-04 15:08 60.25205 11.11247 1476 ft 137 kts 204°
2026-05-04 15:08 60.24286 11.10714 1297 ft 138 kts 203°
2026-05-04 15:08 60.23364 11.10179 1065 ft 135 kts 205°
2026-05-04 15:09 60.22467 11.09667 895 ft 134 kts 203°
2026-05-04 15:09 60.21587 11.09157 732 ft 132 kts 200°
2026-05-04 15:09 60.20747 11.08665 679 ft 112 kts 195°
2026-05-04 15:10 60.19990 11.08299 672 ft 21 kts 175°
2026-05-04 15:10 60.19902 11.08395 674 ft 12 kts 117°
2026-05-04 15:10 60.19862 11.08656 676 ft 10 kts 107°
2026-05-04 15:11 60.19839 11.08812 676 ft 16 kts 105°
2026-05-04 15:11 60.19807 11.09042 680 ft 17 kts 106°
2026-05-04 15:11 60.19776 11.09259 680 ft 16 kts 106°
2026-05-04 15:11 60.19746 11.09468 682 ft 15 kts 106°
2026-05-04 15:12 60.19718 11.09666 680 ft 12 kts 106°
2026-05-04 15:12 60.19668 11.09744 684 ft 10 kts 190°
2026-05-04 15:12 60.19606 11.09697 678 ft 9 kts 195°
2026-05-04 15:12 60.19555 11.09668 684 ft 6 kts 196°
2026-05-04 15:13 60.19533 11.09656 684 ft 1 kts 196°
2026-05-04 15:13 60.19532 11.09655 684 ft 0 kts 196°